Home   Weather   Fairfield Estates   Past weeks
Flag for USA

Past Weather in Fairfield Estates, Alabama, USA — Yesterday and Last 2 Weeks

Now
77 °F

Low clouds.


Feels Like: 78 °F
Forecast: 84 / 73 °F
Wind: 6 mph from North

Location: Dothan Airport

Current Time: Jul 6, 2020 at 8:40:41 am

Latest Report: Jul 6, 2020 at 8:05 am


Visibility: 10 mi

Pressure: 29.99 "Hg

Humidity: 90%

Dew Point: 74 °F

Location of Fairfield EstatesLocation

Past Weather in Fairfield Estates — Graph

°F

Fairfield Estates Temperature Yesterday

Maximum temperature yesterday: 86 °F (at 11:53 am)
Minimum temperature yesterday: 73 °F (at 2:30 am)
Average temperature yesterday: 76 °F

High & Low Weather Summary for the Past Weeks

 TemperatureHumidityPressure
High96 °F (Jun 29, 3:53 pm)100% (Jul 5, 2:53 am)30.23 "Hg (Jul 5, 2:53 am)
Low72 °F (Jun 22, 9:53 pm)36% (Jun 21, 2:53 pm)29.87 "Hg (Jul 4, 5:53 pm)
Average80 °F79%30.02 "Hg
* Reported Jun 21 6:53 am — Jul 6 6:53 am, Fairfield Estates. Weather by CustomWeather, © 2020

Note: Actual official high and low records may vary slightly from our data, if they occured in-between our weather recording intervals... More about our weather records

Fairfield Estates Weather History for the Previous 24 Hours

Scroll right to see more
 ConditionsComfort  
Time TempWeatherWind HumidityBarometerVisibility
6:53 am
Mon, Jul 6
76 °FOvercast.6 mph94%29.95 "Hg7 mi
5:53 am75 °FFog.5 mph96%29.93 "Hg6 mi
5:00 am75 °FFog.3 mph96%29.94 "Hg5 mi
4:28 am76 °FFog.3 mph94%29.94 "Hg6 mi
3:53 am76 °FFog.3 mph94%29.91 "Hg5 mi
2:53 am76 °FFog.3 mph94%29.91 "Hg6 mi
1:53 am76 °FLow clouds.5 mph97%29.92 "Hg7 mi
1:12 am76 °FFog.8 mph97%29.94 "Hg3 mi
1:04 am76 °FFog.8 mph97%29.95 "Hg1 mi
12:53 am76 °FFog.6 mph97%29.93 "Hg1 mi
12:17 am76 °FFog.5 mph97%29.96 "Hg5 mi
12:08 am76 °FPassing clouds.5 mph97%29.96 "Hg7 mi
11:53 pm
Sun, Jul 5
76 °FClear.5 mph97%29.94 "Hg10 mi
10:53 pm76 °FPassing clouds.5 mph97%29.95 "Hg10 mi
9:53 pm77 °FPassing clouds.3 mph94%29.93 "Hg10 mi
8:53 pm77 °FClear.No wind94%29.93 "Hg10 mi
7:53 pm77 °FPassing clouds.3 mph94%29.92 "Hg10 mi
6:53 pm78 °FSunny.No wind90%29.91 "Hg10 mi
5:53 pm79 °FSunny.3 mph88%29.90 "Hg10 mi
4:53 pm79 °FPassing clouds.3 mph84%29.92 "Hg10 mi
4:33 pm78 °FLight rain. Partly sunny.No wind90%29.94 "Hg10 mi
3:53 pm76 °FLight rain. Scattered clouds.No wind94%29.92 "Hg8 mi
3:28 pm76 °FLight rain. Fog.6 mph94%29.95 "Hg5 mi
3:01 pm76 °FHeavy rain. Fog.6 mph94%29.95 "Hg1 mi
2:29 pm76 °FRain. Fog.14 mph94%29.94 "Hg4 mi
2:09 pm77 °FLight rain. Partly sunny.21 mph88%29.95 "Hg9 mi
1:53 pm86 °FScattered clouds.6 mph67%29.93 "Hg10 mi
12:53 pm86 °FPassing clouds.7 mph70%29.94 "Hg10 mi
11:53 am86 °FScattered clouds.6 mph70%29.95 "Hg10 mi
10:53 am83 °FScattered clouds.8 mph77%29.97 "Hg10 mi
10:16 am81 °FPartly sunny.No wind79%29.99 "Hg10 mi
10:00 am82 °FScattered clouds.3 mph79%29.99 "Hg10 mi
9:32 am79 °FOvercast.6 mph84%29.99 "Hg10 mi
9:16 am78 °FLow clouds.5 mph87%29.99 "Hg10 mi
8:53 am76 °FLow clouds.5 mph97%29.97 "Hg10 mi
8:31 am75 °FFog.5 mph96%29.98 "Hg5 mi
Weather by CustomWeather, © 2020

See weather overview